TITAN 3C TRANSTAGE R/B, 2770

Orbit data source: Space-Track

TITAN 3C TRANSTAGE R/B, 2770 is space debris in HEO originally from a launch on Fri, 28 Apr 1967 UTC launched from the Air Force Eastern Test Range (AFETR). Debris objects in space refer to the collection of defunct objects orbiting the Earth. Examples of debris include non-operational satellites, rocket bodies, and fragments generated from explosions, collisions, or faulty payload assembly.

Not visible in the next 10 days
Identifier
2770, 1967-040F
Orbit
HEO
Last TLE update
in 13 hours
Origin
Manufacturer
Martin Marietta
Mission
Spacecraft
Bus & Motor
TRANSTAGE, Unknown motor
Mass
3,103 kg wet, 3,103 kg dry
Launch date (UTC)
1967-04-28 (58 years ago)
Launch vehicle
Unknown
Launch site
Air Force Eastern Test Range (AFETR)
Object type
Payload
Rocket body
Debris
Shape & HBR
Cyl + 2 Nozzle, 2.3 m
Radar Cross Section
14.974 m², Large (>1 m²)

Expand to show TLE details & history

TLE from in 13 hours
0 TITAN 3C TRANSTAGE R/B
1 02770U 67040F   25200.52094530 -.00000041  00000-0  00000-0 0  9996
2 02770  17.9404 216.7713 7822715 337.1894 359.8008  0.50935682 21618
Epoch: 2025-07-19T12:30Z
TLE epoch observation values (Epoch: 2025-07-19T12:30:09.673Z)
Latitude
-7.13522°
Longitude
68.95828°
Altitude
8,267.718 km
Speed
6.958 km/s
True Right ascension
12h 56m 13s
True Declination
-7° 06' 53"
Sunlit
Object was in daylight at epoch
Visualization orbit readout
Latitude
1.7327°
Longitude
-93.34986°
Altitude
94,825.106 km
Speed
1.363 km/s
Apparent Right ascension
02h 01m 56s
Apparent Declination
0° 32' 59"
Sunlit
Object is in daylight
Visualization observer readout
Local Sidereal Time
12:13:51
Azimuth
321.16° NNW
Elevation
-43.581°
Doppler factor
1
Orbital elements
Apogee altitude
111,665.711 km
Perigee altitude
8,042.511 km
Semi-major axis
66,232.248 km
Eccentricity
0.78227
Inclination
17.9404°
RAAN
216.7713°
Arg. of periapsis
337.1894°
True anomaly
357.3832°
Mean anomaly
359.8008°
Eccentric anomaly
359.08524°
Mean motion
0.12733 °/min
Orbital period
2,827.25 mins
BSTAR
0
Loading maneuver chart data...
Loading SW <> Apogee altitude chart data...
Loading historical data...
Loading historical data...
Loading historical data...
Loading historical data...
Loading historical data...
Loading historical data...
Loading historical data...
|